Date,TemperatureHighF,TemperatureAvgF,TemperatureLowF,DewpointHighF,DewpointAvgF,DewpointLowF,HumidityHigh,HumidityAvg,HumidityLow,PressureMaxIn,PressureMinIn,WindSpeedMaxMPH,WindSpeedAvgMPH,GustSpeedMaxMPH,PrecipitationSumIn
2013-2-1,29.0,25.3,19.0,17.0,7.5,1.0,71,47,35,30.06,29.59,24,11,30,0.00
2013-2-2,28.0,21.9,15.0,13.0,5.1,1.0,68,48,35,30.21,30.01,23,8,24,0.00
2013-2-3,27.0,22.8,17.0,18.0,15.9,13.0,86,75,64,30.02,29.71,7,1,12,0.00
2013-2-4,27.0,21.2,17.0,13.0,8.8,4.0,77,60,37,29.91,29.70,21,6,27,0.00
2013-2-5,24.0,21.5,18.0,19.0,13.4,8.0,86,71,61,29.97,29.89,0,0,1,0.03
2013-2-6,36.0,27.5,22.0,24.0,16.1,1.0,90,65,35,30.26,29.87,19,6,27,0.00
2013-2-7,30.0,22.6,15.0,9.0,4.8,1.0,64,47,33,30.48,30.26,8,2,14,0.00
2013-2-8,31.0,25.2,17.0,29.0,20.5,5.0,93,83,50,30.42,29.54,21,8,40,0.08
2013-2-9,22.0,17.6,12.0,17.0,11.0,-1.0,89,76,53,30.17,29.53,24,13,37,0.01
2013-2-10,36.0,21.7,9.0,9.0,0.4,-5.0,56,40,25,30.37,30.17,14,5,20,0.00
2013-2-11,44.0,34.1,21.0,43.0,28.9,4.0,97,83,45,30.32,29.61,12,4,23,0.23
2013-2-12,41.0,37.0,33.0,39.0,27.8,22.0,97,70,55,29.88,29.62,29,10,34,0.00
2013-2-13,40.0,34.3,30.0,24.0,21.9,20.0,71,60,48,29.85,29.67,18,5,28,0.00
2013-2-14,42.0,33.8,26.0,26.0,21.5,19.0,86,63,40,29.98,29.68,10,4,15,0.00
2013-2-15,49.0,37.2,27.0,34.0,30.4,21.0,95,78,54,29.98,29.89,14,3,21,0.00
2013-2-16,36.0,33.0,28.0,33.0,27.4,19.0,94,80,64,29.92,29.68,8,2,15,0.00
2013-2-17,28.0,20.1,13.0,21.0,6.6,-3.0,85,58,33,29.70,29.41,32,15,46,0.01
2013-2-18,28.0,19.4,11.0,0.0,-2.6,-5.0,50,38,26,30.14,29.70,27,13,34,0.00
2013-2-19,44.0,33.4,19.0,42.0,22.9,0.0,96,67,39,30.14,29.57,13,4,25,0.00
2013-2-20,39.0,29.5,24.0,37.0,16.8,8.0,95,61,42,29.78,29.55,30,13,34,0.00
2013-2-21,30.0,25.2,22.0,15.0,11.3,9.0,67,55,45,30.18,29.76,27,12,33,0.00
2013-2-22,39.0,29.7,20.0,22.0,18.2,14.0,79,63,45,30.34,30.18,15,5,20,0.00
2013-2-23,35.0,31.9,29.0,30.0,27.0,22.0,94,82,74,30.29,29.85,15,5,17,0.00
2013-2-24,35.0,32.9,31.0,34.0,31.4,29.0,96,94,92,29.85,29.66,16,4,15,0.02
2013-2-25,39.0,33.0,27.0,32.0,29.0,25.0,95,86,73,30.22,29.85,9,1,10,0.02
2013-2-26,40.0,35.0,31.0,31.0,28.3,26.0,91,77,61,30.29,30.09,9,2,16,0.00
2013-2-27,40.0,36.7,33.0,39.0,35.3,29.0,96,94,81,30.10,29.57,26,7,29,0.07
2013-2-28,43.0,36.1,32.0,39.0,33.9,31.0,97,92,78,29.62,29.51,0,0,0,0.00